Time,TemperatureF,DewpointF,PressureIn,WindDirection,WindDirectionDegrees,WindSpeedMPH,WindSpeedGustMPH,Humidity,HourlyPrecipIn,Conditions,Clouds,dailyrainin,SolarRadiationWatts/m^2,SoftwareType,DateUTC
2013-08-24 00:00:00,81.7,62.4,29.61,ESE,118,1.0,4.0,52,0.00,,SKC,0.00,0.00,VWS V14.01,2013-08-24 05:00:00,
2013-08-24 00:01:00,81.7,62.4,29.61,ESE,118,2.0,4.0,52,0.00,,SKC,0.00,0.00,VWS V14.00,2013-08-24 05:01:00,
2013-08-24 00:06:00,81.8,61.9,29.61,ESE,118,0.0,4.0,51,0.00,,SKC,0.00,0.00,VWS V14.00,2013-08-24 05:06:00,
2013-08-24 00:10:00,81.9,62.0,29.62,ESE,118,0.0,4.0,51,0.00,,SKC,0.00,0.00,VWS V14.01,2013-08-24 05:10:00,
2013-08-24 00:11:00,81.9,62.0,29.62,ESE,118,0.0,4.0,51,0.00,,SKC,0.00,0.00,VWS V14.00,2013-08-24 05:11:00,
2013-08-24 00:16:00,81.9,62.0,29.62,ESE,118,2.0,4.0,51,0.00,,SKC,0.00,0.00,VWS V14.00,2013-08-24 05:16:00,
2013-08-24 00:20:00,81.9,63.6,29.62,ESE,118,0.0,4.0,54,0.00,,SKC,0.00,0.00,VWS V14.01,2013-08-24 05:20:00,
2013-08-24 00:21:00,82.0,63.7,29.62,ESE,118,0.0,4.0,54,0.00,,SKC,0.00,0.00,VWS V14.00,2013-08-24 05:21:00,
2013-08-24 00:26:00,81.8,63.0,29.61,ESE,118,0.0,0.0,53,0.00,,SKC,0.00,0.00,VWS V14.00,2013-08-24 05:26:00,
2013-08-24 00:30:00,81.6,62.8,29.62,ESE,118,0.0,0.0,53,0.00,,SKC,0.00,0.00,VWS V14.01,2013-08-24 05:30:00,
2013-08-24 00:31:00,81.6,62.3,29.62,ESE,118,0.0,0.0,52,0.00,,SKC,0.00,0.00,VWS V14.00,2013-08-24 05:31:00,
2013-08-24 00:36:00,81.4,62.6,29.62,ESE,118,4.0,4.0,53,0.00,,SKC,0.00,0.00,VWS V14.00,2013-08-24 05:36:00,
2013-08-24 00:40:00,81.1,62.9,29.62,ESE,118,0.0,5.0,54,0.00,,SKC,0.00,0.00,VWS V14.01,2013-08-24 05:40:00,
2013-08-24 00:41:00,81.1,62.9,29.62,ESE,118,0.0,5.0,54,0.00,,SKC,0.00,0.00,VWS V14.00,2013-08-24 05:41:00,
2013-08-24 00:46:00,80.9,62.7,29.63,ESE,118,1.0,1.0,54,0.00,,SKC,0.00,0.00,VWS V14.00,2013-08-24 05:46:00,
2013-08-24 00:50:00,80.8,63.1,29.63,ESE,118,4.0,5.0,55,0.00,,SKC,0.00,0.00,VWS V14.01,2013-08-24 05:50:00,
2013-08-24 00:51:00,80.8,63.1,29.63,ESE,118,1.0,5.0,55,0.00,,SKC,0.00,0.00,VWS V14.00,2013-08-24 05:51:00,
2013-08-24 00:56:00,80.9,63.2,29.63,ESE,118,2.0,6.0,55,0.00,,SKC,0.00,0.00,VWS V14.00,2013-08-24 05:56:00,
2013-08-24 01:00:00,80.9,63.2,29.64,ESE,118,0.0,6.0,55,0.00,,SKC,0.00,0.00,VWS V14.01,2013-08-24 06:00:00,
2013-08-24 01:01:00,80.9,63.2,29.64,ESE,118,1.0,6.0,55,0.00,,SKC,0.00,0.00,VWS V14.00,2013-08-24 06:01:00,
2013-08-24 01:06:00,80.9,63.2,29.63,ESE,118,2.0,2.0,55,0.00,,SKC,0.00,0.00,VWS V14.00,2013-08-24 06:06:00,
2013-08-24 01:10:00,80.9,63.8,29.64,ESE,118,0.0,4.0,56,0.00,,SKC,0.00,0.00,VWS V14.01,2013-08-24 06:10:00,
2013-08-24 01:11:00,80.9,63.8,29.64,ESE,118,0.0,4.0,56,0.00,,SKC,0.00,0.00,VWS V14.00,2013-08-24 06:11:00,
2013-08-24 01:16:00,80.8,63.7,29.64,ESE,118,0.0,2.0,56,0.00,,SKC,0.00,0.00,VWS V14.00,2013-08-24 06:16:00,
2013-08-24 01:20:00,80.8,64.2,29.64,ESE,118,0.0,2.0,57,0.00,,SKC,0.00,0.00,VWS V14.01,2013-08-24 06:20:00,
2013-08-24 01:21:00,80.8,64.2,29.64,ESE,118,0.0,2.0,57,0.00,,SKC,0.00,0.00,VWS V14.00,2013-08-24 06:21:00,
2013-08-24 01:26:00,80.8,64.2,29.64,ESE,118,1.0,4.0,57,0.00,,SKC,0.00,0.00,VWS V14.00,2013-08-24 06:26:00,
2013-08-24 01:30:00,80.7,64.1,29.64,ESE,118,1.0,4.0,57,0.00,,SKC,0.00,0.00,VWS V14.01,2013-08-24 06:30:00,
2013-08-24 01:31:00,80.7,64.1,29.64,ESE,118,0.0,4.0,57,0.00,,SKC,0.00,0.00,VWS V14.00,2013-08-24 06:31:00,
2013-08-24 01:36:00,80.7,64.6,29.64,ESE,118,0.0,4.0,58,0.00,,SKC,0.00,0.00,VWS V14.00,2013-08-24 06:36:00,
2013-08-24 01:40:00,80.6,65.0,29.64,ESE,118,0.0,4.0,59,0.00,,SKC,0.00,0.00,VWS V14.01,2013-08-24 06:40:00,
2013-08-24 01:41:00,80.6,65.0,29.64,ESE,118,0.0,4.0,59,0.00,,SKC,0.00,0.00,VWS V14.00,2013-08-24 06:41:00,
2013-08-24 01:46:00,80.5,64.9,29.64,ESE,118,0.0,4.0,59,0.00,,SKC,0.00,0.00,VWS V14.00,2013-08-24 06:46:00,
2013-08-24 01:50:00,80.4,65.3,29.64,ESE,118,2.0,4.0,60,0.00,,SKC,0.00,0.00,VWS V14.01,2013-08-24 06:50:00,
2013-08-24 01:51:00,80.4,65.3,29.64,ESE,118,1.0,4.0,60,0.00,,SKC,0.00,0.00,VWS V14.00,2013-08-24 06:51:00,
2013-08-24 01:56:00,80.2,65.1,29.64,ESE,118,1.0,6.0,60,0.00,,SKC,0.00,0.00,VWS V14.00,2013-08-24 06:56:00,
2013-08-24 02:00:00,80.1,65.4,29.64,ESE,118,4.0,7.0,61,0.00,,SKC,0.00,0.00,VWS V14.01,2013-08-24 07:00:00,
2013-08-24 02:01:00,80.1,65.4,29.64,ESE,118,2.0,7.0,61,0.00,,SKC,0.00,0.00,VWS V14.00,2013-08-24 07:01:00,
2013-08-24 02:06:00,80.0,65.8,29.64,ESE,118,5.0,8.0,62,0.00,,SKC,0.00,0.00,VWS V14.00,2013-08-24 07:06:00,
2013-08-24 02:10:00,80.0,66.3,29.64,ESE,118,4.0,8.0,63,0.00,,SKC,0.00,0.00,VWS V14.01,2013-08-24 07:10:00,
2013-08-24 02:11:00,80.0,66.3,29.64,ESE,118,5.0,8.0,63,0.00,,SKC,0.00,0.00,VWS V14.00,2013-08-24 07:11:00,
2013-08-24 02:16:00,80.0,66.3,29.64,ESE,118,2.0,6.0,63,0.00,,SKC,0.00,0.00,VWS V14.00,2013-08-24 07:16:00,
2013-08-24 02:20:00,79.9,66.2,29.65,ESE,118,4.0,7.0,63,0.00,,SKC,0.00,0.00,VWS V14.01,2013-08-24 07:20:00,
2013-08-24 02:21:00,79.9,66.2,29.65,ESE,118,4.0,7.0,63,0.00,,SKC,0.00,0.00,VWS V14.00,2013-08-24 07:21:00,
2013-08-24 02:26:00,79.8,66.6,29.65,ESE,118,4.0,6.0,64,0.00,,SKC,0.00,0.00,VWS V14.00,2013-08-24 07:26:00,
2013-08-24 02:30:00,79.6,65.9,29.65,ESE,118,2.0,7.0,63,0.00,,SKC,0.00,0.00,VWS V14.01,2013-08-24 07:30:00,
2013-08-24 02:31:00,79.7,66.0,29.65,ESE,118,5.0,7.0,63,0.00,,SKC,0.00,0.00,VWS V14.00,2013-08-24 07:31:00,
2013-08-24 02:36:00,79.5,65.8,29.65,ESE,118,2.0,5.0,63,0.00,,SKC,0.00,0.00,VWS V14.00,2013-08-24 07:36:00,
2013-08-24 02:40:00,79.3,66.1,29.65,ESE,118,2.0,5.0,64,0.00,,SKC,0.00,0.00,VWS V14.01,2013-08-24 07:40:00,
2013-08-24 02:41:00,79.4,66.2,29.65,ESE,118,5.0,5.0,64,0.00,,SKC,0.00,0.00,VWS V14.00,2013-08-24 07:41:00,
2013-08-24 02:46:00,79.2,66.0,29.65,ESE,118,2.0,5.0,64,0.00,,SKC,0.00,0.00,VWS V14.00,2013-08-24 07:46:00,
2013-08-24 02:50:00,79.0,66.2,29.65,ESE,118,2.0,5.0,65,0.00,,SKC,0.00,0.00,VWS V14.01,2013-08-24 07:50:00,
2013-08-24 02:51:00,79.1,66.3,29.65,ESE,118,2.0,5.0,65,0.00,,SKC,0.00,0.00,VWS V14.00,2013-08-24 07:51:00,
2013-08-24 02:56:00,78.9,66.2,29.65,ESE,118,4.0,6.0,65,0.00,,SKC,0.00,0.00,VWS V14.00,2013-08-24 07:56:00,
2013-08-24 03:00:00,78.8,66.5,29.65,ESE,118,1.0,6.0,66,0.00,,SKC,0.00,0.00,VWS V14.01,2013-08-24 08:00:00,
2013-08-24 03:01:00,78.9,66.6,29.65,ESE,118,2.0,6.0,66,0.00,,SKC,0.00,0.00,VWS V14.00,2013-08-24 08:01:00,
2013-08-24 03:06:00,78.8,66.5,29.65,ESE,118,1.0,4.0,66,0.00,,SKC,0.00,0.00,VWS V14.00,2013-08-24 08:06:00,
2013-08-24 03:10:00,78.8,66.5,29.65,ESE,118,4.0,4.0,66,0.00,,SKC,0.00,0.00,VWS V14.01,2013-08-24 08:10:00,
2013-08-24 03:11:00,78.8,66.5,29.65,ESE,118,2.0,4.0,66,0.00,,SKC,0.00,0.00,VWS V14.00,2013-08-24 08:11:00,
2013-08-24 03:16:00,78.7,66.8,29.65,ESE,118,2.0,6.0,67,0.00,,SKC,0.00,0.00,VWS V14.00,2013-08-24 08:16:00,
2013-08-24 03:20:00,78.7,66.8,29.65,ESE,118,0.0,6.0,67,0.00,,SKC,0.00,0.00,VWS V14.01,2013-08-24 08:20:00,
2013-08-24 03:21:00,78.7,66.8,29.65,ESE,118,2.0,6.0,67,0.00,,SKC,0.00,0.00,VWS V14.00,2013-08-24 08:21:00,
2013-08-24 03:26:00,78.6,66.7,29.65,ESE,118,0.0,0.0,67,0.00,,SKC,0.00,0.00,VWS V14.00,2013-08-24 08:26:00,
2013-08-24 03:30:00,78.6,66.7,29.65,ESE,118,0.0,4.0,67,0.00,,SKC,0.00,0.00,VWS V14.01,2013-08-24 08:30:00,
2013-08-24 03:31:00,78.6,66.7,29.65,ESE,118,2.0,4.0,67,0.00,,SKC,0.00,0.00,VWS V14.00,2013-08-24 08:31:00,
2013-08-24 03:36:00,78.5,66.6,29.65,ESE,118,0.0,5.0,67,0.00,,SKC,0.00,0.00,VWS V14.00,2013-08-24 08:36:00,
2013-08-24 03:40:00,78.5,66.6,29.65,ESE,118,2.0,5.0,67,0.00,,SKC,0.00,0.00,VWS V14.01,2013-08-24 08:40:00,
2013-08-24 03:41:00,78.5,66.6,29.65,ESE,118,2.0,5.0,67,0.00,,SKC,0.00,0.00,VWS V14.00,2013-08-24 08:41:00,
2013-08-24 03:46:00,78.4,66.6,29.65,ESE,118,2.0,4.0,67,0.00,,SKC,0.00,0.00,VWS V14.00,2013-08-24 08:46:00,
2013-08-24 03:50:00,78.4,66.6,29.65,ESE,118,0.0,4.0,67,0.00,,SKC,0.00,0.00,VWS V14.01,2013-08-24 08:50:00,
2013-08-24 03:51:00,78.4,66.6,29.65,ESE,118,1.0,4.0,67,0.00,,SKC,0.00,0.00,VWS V14.00,2013-08-24 08:51:00,
2013-08-24 03:56:00,78.4,66.6,29.65,ESE,118,0.0,2.0,67,0.00,,SKC,0.00,0.00,VWS V14.00,2013-08-24 08:56:00,
2013-08-24 04:00:00,78.3,66.4,29.65,ESE,118,0.0,4.0,67,0.00,,SKC,0.00,0.00,VWS V14.01,2013-08-24 09:00:00,
2013-08-24 04:01:00,78.4,66.6,29.65,ESE,118,0.0,4.0,67,0.00,,SKC,0.00,0.00,VWS V14.00,2013-08-24 09:01:00,
2013-08-24 04:06:00,78.3,66.4,29.65,ESE,118,0.0,2.0,67,0.00,,SKC,0.00,0.00,VWS V14.00,2013-08-24 09:06:00,
2013-08-24 04:10:00,78.3,66.4,29.65,ESE,118,0.0,2.0,67,0.00,,SKC,0.00,0.00,VWS V14.00,2013-08-24 09:10:00,
2013-08-24 04:15:00,78.3,66.4,29.65,ESE,118,0.0,0.0,67,0.00,,SKC,0.00,0.00,VWS V14.00,2013-08-24 09:15:00,
2013-08-24 04:20:00,78.2,66.8,29.65,ESE,118,0.0,0.0,68,0.00,,SKC,0.00,0.00,VWS V14.00,2013-08-24 09:20:00,
2013-08-24 04:25:00,78.2,66.8,29.65,ESE,118,0.0,6.0,68,0.00,,SKC,0.00,0.00,VWS V14.00,2013-08-24 09:25:00,
2013-08-24 04:30:00,78.3,67.3,29.66,ESE,118,2.0,6.0,69,0.00,,SKC,0.00,0.00,VWS V14.00,2013-08-24 09:30:00,
2013-08-24 04:35:00,78.3,67.3,29.65,ESE,118,0.0,1.0,69,0.00,,SKC,0.00,0.00,VWS V14.00,2013-08-24 09:35:00,
2013-08-24 04:40:00,78.2,67.2,29.65,ESE,118,2.0,4.0,69,0.00,,SKC,0.00,0.00,VWS V14.00,2013-08-24 09:40:00,
2013-08-24 04:45:00,78.2,67.6,29.65,ESE,118,0.0,4.0,70,0.00,,SKC,0.00,0.00,VWS V14.00,2013-08-24 09:45:00,
2013-08-24 04:50:00,78.2,67.2,29.65,ESE,118,0.0,4.0,69,0.00,,SKC,0.00,0.00,VWS V14.00,2013-08-24 09:50:00,
2013-08-24 04:55:00,78.1,67.1,29.64,ESE,118,0.0,0.0,69,0.00,,SKC,0.00,0.00,VWS V14.00,2013-08-24 09:55:00,
2013-08-24 05:00:00,78.0,67.4,29.65,ESE,118,0.0,0.0,70,0.00,,SKC,0.00,0.00,VWS V14.00,2013-08-24 10:00:00,
2013-08-24 05:05:00,78.0,67.4,29.65,ESE,118,0.0,0.0,70,0.00,,SKC,0.00,0.00,VWS V14.00,2013-08-24 10:05:00,
2013-08-24 05:10:00,77.9,67.3,29.65,ESE,118,0.0,0.0,70,0.00,,SKC,0.00,0.00,VWS V14.00,2013-08-24 10:10:00,
2013-08-24 05:15:00,77.8,67.2,29.65,ESE,118,0.0,0.0,70,0.00,,SKC,0.00,0.00,VWS V14.00,2013-08-24 10:15:00,
2013-08-24 05:20:00,77.7,67.1,29.65,ESE,118,0.0,0.0,70,0.00,,SKC,0.00,0.00,VWS V14.00,2013-08-24 10:20:00,
2013-08-24 05:25:00,77.7,67.1,29.65,ESE,118,0.0,0.0,70,0.00,,SKC,0.00,0.00,VWS V14.00,2013-08-24 10:25:00,
2013-08-24 05:30:00,77.5,67.4,29.65,ESE,118,0.0,0.0,71,0.00,,SKC,0.00,0.00,VWS V14.00,2013-08-24 10:30:00,
2013-08-24 05:35:00,77.4,67.3,29.65,ESE,118,0.0,0.0,71,0.00,,SKC,0.00,0.00,VWS V14.00,2013-08-24 10:35:00,
2013-08-24 05:40:00,77.2,67.1,29.65,ESE,118,0.0,1.0,71,0.00,,SKC,0.00,0.00,VWS V14.00,2013-08-24 10:40:00,
2013-08-24 05:45:00,77.1,67.0,29.66,ESE,118,0.0,0.0,71,0.00,,SKC,0.00,0.00,VWS V14.00,2013-08-24 10:45:00,
2013-08-24 05:50:00,77.0,67.3,29.65,ESE,118,0.0,0.0,72,0.00,,SKC,0.00,0.00,VWS V14.00,2013-08-24 10:50:00,
2013-08-24 05:55:00,76.9,67.2,29.66,ESE,118,0.0,0.0,72,0.00,,SKC,0.00,0.00,VWS V14.00,2013-08-24 10:55:00,
2013-08-24 06:00:00,76.8,67.1,29.66,ESE,118,0.0,0.0,72,0.00,,SKC,0.00,0.00,VWS V14.00,2013-08-24 11:00:00,
2013-08-24 06:05:00,76.7,67.0,29.66,ESE,118,0.0,0.0,72,0.00,,SKC,0.00,0.00,VWS V14.00,2013-08-24 11:05:00,
2013-08-24 06:10:00,76.6,66.9,29.66,ESE,118,0.0,0.0,72,0.00,,SKC,0.00,0.00,VWS V14.00,2013-08-24 11:10:00,
2013-08-24 06:15:00,76.4,67.1,29.66,ESE,118,0.0,0.0,73,0.00,,SKC,0.00,0.00,VWS V14.00,2013-08-24 11:15:00,
2013-08-24 06:20:00,76.3,67.0,29.66,ESE,118,0.0,0.0,73,0.00,,SKC,0.00,0.00,VWS V14.00,2013-08-24 11:20:00,
2013-08-24 06:25:00,76.2,66.9,29.67,ESE,118,0.0,0.0,73,0.00,,SKC,0.00,0.00,VWS V14.00,2013-08-24 11:25:00,
2013-08-24 06:30:00,76.1,66.8,29.66,ESE,118,0.0,0.0,73,0.00,,SKC,0.00,0.00,VWS V14.00,2013-08-24 11:30:00,
2013-08-24 06:35:00,76.0,66.7,29.67,ESE,118,0.0,0.0,73,0.00,,SKC,0.00,0.00,VWS V14.00,2013-08-24 11:35:00,
2013-08-24 06:40:00,75.9,66.6,29.67,ESE,118,0.0,0.0,73,0.00,,SKC,0.00,0.00,VWS V14.00,2013-08-24 11:40:00,
2013-08-24 06:45:00,75.8,66.9,29.67,ESE,118,0.0,0.0,74,0.00,,SKC,0.00,0.00,VWS V14.00,2013-08-24 11:45:00,
2013-08-24 06:50:00,75.7,66.8,29.67,ESE,118,0.0,0.0,74,0.00,,SKC,0.00,0.00,VWS V14.00,2013-08-24 11:50:00,
2013-08-24 06:55:00,75.5,67.4,29.67,ESE,118,0.0,0.0,76,0.00,,SKC,0.00,0.00,VWS V14.00,2013-08-24 11:55:00,
2013-08-24 07:00:00,75.4,67.3,29.67,ESE,118,0.0,0.0,76,0.00,,SKC,0.00,0.00,VWS V14.00,2013-08-24 12:00:00,
2013-08-24 07:05:00,75.3,67.2,29.67,ESE,118,0.0,0.0,76,0.00,,SKC,0.00,0.00,VWS V14.00,2013-08-24 12:05:00,
2013-08-24 07:10:00,75.2,67.5,29.67,ESE,118,0.0,0.0,77,0.00,,SKC,0.00,0.00,VWS V14.00,2013-08-24 12:10:00,
2013-08-24 07:15:00,75.1,67.4,29.68,ESE,118,0.0,0.0,77,0.00,,SKC,0.00,12.00,VWS V14.00,2013-08-24 12:15:00,
2013-08-24 07:20:00,75.1,67.4,29.68,ESE,118,0.0,0.0,77,0.00,,SKC,0.00,16.00,VWS V14.00,2013-08-24 12:20:00,
2013-08-24 07:25:00,75.1,67.4,29.68,ESE,118,0.0,0.0,77,0.00,,SKC,0.00,19.00,VWS V14.00,2013-08-24 12:25:00,
2013-08-24 07:30:00,75.0,67.3,29.69,ESE,118,0.0,0.0,77,0.00,,SKC,0.00,23.00,VWS V14.00,2013-08-24 12:30:00,
2013-08-24 07:35:00,74.9,67.2,29.69,ESE,118,0.0,0.0,77,0.00,,SKC,0.00,30.00,VWS V14.00,2013-08-24 12:35:00,
2013-08-24 07:40:00,74.9,67.2,29.69,ESE,118,0.0,0.0,77,0.00,,SKC,0.00,39.00,VWS V14.00,2013-08-24 12:40:00,
2013-08-24 07:45:00,74.9,67.2,29.70,ESE,118,0.0,0.0,77,0.00,,SKC,0.00,49.00,VWS V14.00,2013-08-24 12:45:00,
2013-08-24 07:50:00,74.9,67.6,29.70,ESE,118,0.0,0.0,78,0.00,,SKC,0.00,54.00,VWS V14.00,2013-08-24 12:50:00,
2013-08-24 07:55:00,74.9,67.6,29.70,ESE,118,0.0,0.0,78,0.00,,SKC,0.00,47.00,VWS V14.00,2013-08-24 12:55:00,
2013-08-24 08:00:00,74.8,67.5,29.69,ESE,118,0.0,1.0,78,0.00,,SKC,0.00,47.00,VWS V14.00,2013-08-24 13:00:00,
2013-08-24 08:05:00,74.8,67.5,29.69,ESE,118,0.0,0.0,78,0.00,,SKC,0.00,49.00,VWS V14.00,2013-08-24 13:05:00,
2013-08-24 08:10:00,74.9,67.6,29.69,ESE,118,0.0,0.0,78,0.00,,SKC,0.00,116.00,VWS V14.00,2013-08-24 13:10:00,
2013-08-24 08:15:00,74.9,67.6,29.70,ESE,118,0.0,0.0,78,0.00,,SKC,0.00,69.00,VWS V14.00,2013-08-24 13:15:00,
2013-08-24 08:20:00,75.0,67.7,29.70,ESE,118,0.0,0.0,78,0.00,,SKC,0.00,95.00,VWS V14.00,2013-08-24 13:20:00,
2013-08-24 08:25:00,75.1,67.8,29.70,ESE,118,0.0,0.0,78,0.00,,SKC,0.00,162.00,VWS V14.00,2013-08-24 13:25:00,
2013-08-24 08:30:00,75.3,68.0,29.70,ESE,118,0.0,0.0,78,0.00,,SKC,0.00,174.00,VWS V14.00,2013-08-24 13:30:00,
2013-08-24 08:35:00,75.7,68.0,29.70,ESE,118,0.0,1.0,77,0.00,,SKC,0.00,165.00,VWS V14.00,2013-08-24 13:35:00,
2013-08-24 08:40:00,76.0,68.3,29.71,ESE,118,0.0,2.0,77,0.00,,SKC,0.00,199.00,VWS V14.00,2013-08-24 13:40:00,
2013-08-24 08:45:00,76.4,68.7,29.71,ESE,118,0.0,0.0,77,0.00,,SKC,0.00,144.00,VWS V14.00,2013-08-24 13:45:00,
2013-08-24 08:50:00,76.7,68.6,29.71,ESE,118,0.0,0.0,76,0.00,,SKC,0.00,128.00,VWS V14.00,2013-08-24 13:50:00,
2013-08-24 08:55:00,77.0,68.5,29.70,ESE,118,0.0,0.0,75,0.00,,SKC,0.00,142.00,VWS V14.00,2013-08-24 13:55:00,
2013-08-24 09:00:00,77.4,68.5,29.71,ESE,118,0.0,1.0,74,0.00,,SKC,0.00,156.00,VWS V14.00,2013-08-24 14:00:00,
2013-08-24 09:05:00,77.8,68.5,29.71,ESE,118,0.0,1.0,73,0.00,,SKC,0.00,135.00,VWS V14.00,2013-08-24 14:05:00,
2013-08-24 09:10:00,78.2,68.4,29.71,ESE,118,0.0,1.0,72,0.00,,SKC,0.00,137.00,VWS V14.00,2013-08-24 14:10:00,
2013-08-24 09:15:00,78.5,68.7,29.71,ESE,118,0.0,0.0,72,0.00,,SKC,0.00,313.00,VWS V14.00,2013-08-24 14:15:00,
2013-08-24 09:20:00,79.1,68.5,29.71,ESE,118,0.0,1.0,70,0.00,,SKC,0.00,411.00,VWS V14.00,2013-08-24 14:20:00,
2013-08-24 09:25:00,79.7,68.6,29.72,ESE,118,0.0,2.0,69,0.00,,SKC,0.00,244.00,VWS V14.00,2013-08-24 14:25:00,
2013-08-24 09:30:00,80.2,68.7,29.71,ESE,118,0.0,5.0,68,0.00,,SKC,0.00,446.00,VWS V14.00,2013-08-24 14:30:00,
2013-08-24 09:35:00,80.7,68.3,29.71,ESE,118,2.0,5.0,66,0.00,,SKC,0.00,471.00,VWS V14.00,2013-08-24 14:35:00,
2013-08-24 09:40:00,81.2,68.3,29.71,ESE,118,0.0,5.0,65,0.00,,SKC,0.00,503.00,VWS V14.00,2013-08-24 14:40:00,
2013-08-24 09:45:00,81.8,68.0,29.72,ESE,118,0.0,6.0,63,0.00,,SKC,0.00,265.00,VWS V14.00,2013-08-24 14:45:00,
2013-08-24 09:50:00,82.3,68.5,29.72,ESE,118,0.0,6.0,63,0.00,,SKC,0.00,202.00,VWS V14.00,2013-08-24 14:50:00,
2013-08-24 09:55:00,82.7,67.9,29.72,ESE,118,0.0,1.0,61,0.00,,SKC,0.00,564.00,VWS V14.00,2013-08-24 14:55:00,
2013-08-24 10:00:00,83.4,68.1,29.72,ESE,118,4.0,5.0,60,0.00,,SKC,0.00,541.00,VWS V14.00,2013-08-24 15:00:00,
2013-08-24 10:05:00,84.1,64.6,29.72,ESE,118,0.0,6.0,52,0.00,,SKC,0.00,545.00,VWS V14.00,2013-08-24 15:05:00,
2013-08-24 10:10:00,84.8,63.0,29.73,ESE,118,0.0,7.0,48,0.00,,SKC,0.00,522.00,VWS V14.00,2013-08-24 15:10:00,
2013-08-24 10:15:00,85.5,64.2,29.73,ESE,118,1.0,2.0,49,0.00,,SKC,0.00,548.00,VWS V14.00,2013-08-24 15:15:00,
2013-08-24 10:20:00,86.3,66.6,29.73,ESE,118,1.0,6.0,52,0.00,,SKC,0.00,605.00,VWS V14.00,2013-08-24 15:20:00,
2013-08-24 10:25:00,86.8,66.5,29.73,ESE,118,0.0,1.0,51,0.00,,SKC,0.00,589.00,VWS V14.00,2013-08-24 15:25:00,
2013-08-24 10:30:00,87.2,66.3,29.72,ESE,118,2.0,6.0,50,0.00,,SKC,0.00,591.00,VWS V14.00,2013-08-24 15:30:00,
2013-08-24 10:35:00,87.4,66.5,29.72,ESE,118,1.0,6.0,50,0.00,,SKC,0.00,594.00,VWS V14.00,2013-08-24 15:35:00,
2013-08-24 10:40:00,87.6,66.7,29.73,ESE,118,1.0,6.0,50,0.00,,SKC,0.00,603.00,VWS V14.00,2013-08-24 15:40:00,
2013-08-24 10:45:00,88.1,66.6,29.72,ESE,118,4.0,6.0,49,0.00,,SKC,0.00,608.00,VWS V14.00,2013-08-24 15:45:00,
2013-08-24 10:50:00,88.3,66.7,29.72,ESE,118,0.0,6.0,49,0.00,,SKC,0.00,643.00,VWS V14.00,2013-08-24 15:50:00,
2013-08-24 10:55:00,88.6,67.0,29.72,ESE,118,0.0,7.0,49,0.00,,SKC,0.00,687.00,VWS V14.00,2013-08-24 15:55:00,
2013-08-24 11:00:00,88.9,66.7,29.73,ESE,118,7.0,11.0,48,0.00,,SKC,0.00,183.00,VWS V14.00,2013-08-24 16:00:00,
2013-08-24 11:05:00,88.6,67.0,29.73,ESE,118,1.0,4.0,49,0.00,,SKC,0.00,313.00,VWS V14.00,2013-08-24 16:05:00,
2013-08-24 11:10:00,88.6,67.0,29.72,ESE,118,2.0,4.0,49,0.00,,SKC,0.00,181.00,VWS V14.00,2013-08-24 16:10:00,
2013-08-24 11:14:00,88.5,66.9,29.73,ESE,118,2.0,8.0,49,0.00,,SKC,0.00,171.00,VWS V14.00,2013-08-24 16:14:00,
2013-08-24 11:19:00,88.3,66.7,29.72,ESE,118,4.0,8.0,49,0.00,,SKC,0.00,202.00,VWS V14.00,2013-08-24 16:19:00,
2013-08-24 11:20:00,88.1,66.6,29.72,ESE,118,2.0,8.0,49,0.00,,SKC,0.00,202.00,VWS V14.01,2013-08-24 16:20:00,
2013-08-24 11:24:00,88.0,66.5,29.72,ESE,118,0.0,4.0,49,0.00,,SKC,0.00,195.00,VWS V14.00,2013-08-24 16:24:00,
2013-08-24 11:29:00,88.0,66.5,29.72,ESE,118,4.0,7.0,49,0.00,,SKC,0.00,860.00,VWS V14.00,2013-08-24 16:29:00,
2013-08-24 11:30:00,88.1,66.6,29.72,ESE,118,2.0,7.0,49,0.00,,SKC,0.00,795.00,VWS V14.01,2013-08-24 16:30:00,
2013-08-24 11:34:00,88.4,66.8,29.72,ESE,118,2.0,8.0,49,0.00,,SKC,0.00,870.00,VWS V14.00,2013-08-24 16:34:00,
2013-08-24 11:39:00,88.7,66.5,29.71,ESE,118,4.0,8.0,48,0.00,,SKC,0.00,213.00,VWS V14.00,2013-08-24 16:39:00,
2013-08-24 11:40:00,88.8,66.6,29.72,ESE,118,5.0,8.0,48,0.00,,SKC,0.00,209.00,VWS V14.01,2013-08-24 16:40:00,
2013-08-24 11:44:00,89.0,66.8,29.72,ESE,118,0.0,7.0,48,0.00,,SKC,0.00,185.00,VWS V14.00,2013-08-24 16:44:00,
2013-08-24 11:49:00,89.0,66.8,29.71,ESE,118,5.0,7.0,48,0.00,,SKC,0.00,186.00,VWS V14.00,2013-08-24 16:49:00,
2013-08-24 11:50:00,88.9,66.7,29.71,ESE,118,7.0,7.0,48,0.00,,SKC,0.00,185.00,VWS V14.01,2013-08-24 16:50:00,
2013-08-24 11:54:00,88.8,67.2,29.71,ESE,118,0.0,8.0,49,0.00,,SKC,0.00,209.00,VWS V14.00,2013-08-24 16:54:00,
2013-08-24 11:59:00,88.7,67.1,29.71,ESE,118,4.0,8.0,49,0.00,,SKC,0.00,199.00,VWS V14.00,2013-08-24 16:59:00,
2013-08-24 12:00:00,88.7,67.1,29.71,ESE,118,2.0,8.0,49,0.00,,SKC,0.00,214.00,VWS V14.01,2013-08-24 17:00:00,
2013-08-24 12:04:00,88.6,67.0,29.71,ESE,118,5.0,6.0,49,0.00,,SKC,0.00,255.00,VWS V14.00,2013-08-24 17:04:00,
2013-08-24 12:09:00,88.6,67.0,29.71,ESE,118,0.0,8.0,49,0.00,,SKC,0.00,237.00,VWS V14.00,2013-08-24 17:09:00,
2013-08-24 12:10:00,88.7,67.1,29.71,ESE,118,5.0,11.0,49,0.00,,SKC,0.00,970.00,VWS V14.01,2013-08-24 17:10:00,
2013-08-24 12:14:00,88.8,67.2,29.70,ESE,118,5.0,9.0,49,0.00,,SKC,0.00,979.00,VWS V14.00,2013-08-24 17:14:00,
2013-08-24 12:19:00,89.4,67.7,29.71,ESE,118,4.0,9.0,49,0.00,,SKC,0.00,318.00,VWS V14.00,2013-08-24 17:19:00,
2013-08-24 12:20:00,89.7,67.4,29.71,ESE,118,0.0,9.0,48,0.00,,SKC,0.00,258.00,VWS V14.01,2013-08-24 17:20:00,
2013-08-24 12:24:00,90.0,67.7,29.70,ESE,118,2.0,6.0,48,0.00,,SKC,0.00,287.00,VWS V14.00,2013-08-24 17:24:00,
2013-08-24 12:29:00,90.6,67.6,29.70,ESE,118,4.0,7.0,47,0.00,,SKC,0.00,304.00,VWS V14.00,2013-08-24 17:29:00,
2013-08-24 12:30:00,90.8,67.8,29.70,ESE,118,2.0,7.0,47,0.00,,SKC,0.00,1002.00,VWS V14.01,2013-08-24 17:30:00,
2013-08-24 12:34:00,91.3,66.3,29.70,ESE,118,5.0,9.0,44,0.00,,SKC,0.00,1018.00,VWS V14.00,2013-08-24 17:34:00,
2013-08-24 12:39:00,91.9,66.2,29.69,ESE,118,0.0,9.0,43,0.00,,SKC,0.00,1021.00,VWS V14.00,2013-08-24 17:39:00,
2013-08-24 12:40:00,92.2,66.5,29.69,ESE,118,4.0,9.0,43,0.00,,SKC,0.00,1035.00,VWS V14.01,2013-08-24 17:40:00,
2013-08-24 12:44:00,92.6,66.9,29.69,ESE,118,2.0,11.0,43,0.00,,SKC,0.00,1005.00,VWS V14.00,2013-08-24 17:44:00,
2013-08-24 12:49:00,93.3,66.8,29.68,ESE,121,0.0,14.0,42,0.00,,SKC,0.00,1009.00,VWS V14.00,2013-08-24 17:49:00,
2013-08-24 12:50:00,93.4,66.9,29.69,ESE,119,2.0,14.0,42,0.00,,SKC,0.00,1014.00,VWS V14.01,2013-08-24 17:50:00,
2013-08-24 12:54:00,93.3,66.8,29.69,ESE,119,2.0,8.0,42,0.00,,SKC,0.00,1002.00,VWS V14.00,2013-08-24 17:54:00,
2013-08-24 12:59:00,93.6,67.1,29.68,ESE,119,1.0,8.0,42,0.00,,SKC,0.00,246.00,VWS V14.00,2013-08-24 17:59:00,
2013-08-24 13:00:00,93.7,66.5,29.68,ESE,119,0.0,8.0,41,0.00,,SKC,0.00,246.00,VWS V14.01,2013-08-24 18:00:00,
2013-08-24 13:04:00,93.7,66.5,29.68,ESE,119,0.0,5.0,41,0.00,,SKC,0.00,995.00,VWS V14.00,2013-08-24 18:04:00,
2013-08-24 13:09:00,94.2,65.5,29.68,ESE,119,4.0,15.0,39,0.00,,SKC,0.00,1013.00,VWS V14.00,2013-08-24 18:09:00,
2013-08-24 13:10:00,94.3,65.6,29.68,SE,124,9.0,17.0,39,0.00,,SKC,0.00,1027.00,VWS V14.01,2013-08-24 18:10:00,
2013-08-24 13:14:00,94.2,65.5,29.68,ESE,123,6.0,13.0,39,0.00,,SKC,0.00,1025.00,VWS V14.00,2013-08-24 18:14:00,
2013-08-24 13:19:00,94.3,65.6,29.68,ESE,123,5.0,14.0,39,0.00,,SKC,0.00,1007.00,VWS V14.00,2013-08-24 18:19:00,
2013-08-24 13:20:00,94.4,65.7,29.68,ESE,123,5.0,14.0,39,0.00,,SKC,0.00,997.00,VWS V14.01,2013-08-24 18:20:00,
2013-08-24 13:24:00,94.5,65.7,29.68,ESE,123,8.0,11.0,39,0.00,,SKC,0.00,1018.00,VWS V14.00,2013-08-24 18:24:00,
2013-08-24 13:29:00,94.7,65.2,29.68,ESE,123,8.0,13.0,38,0.00,,SKC,0.00,1034.00,VWS V14.00,2013-08-24 18:29:00,
2013-08-24 13:30:00,94.9,65.3,29.67,ESE,123,8.0,13.0,38,0.00,,SKC,0.00,1025.00,VWS V14.01,2013-08-24 18:30:00,
2013-08-24 13:34:00,94.9,64.6,29.67,ESE,123,12.0,14.0,37,0.00,,SKC,0.00,262.00,VWS V14.00,2013-08-24 18:34:00,
2013-08-24 13:39:00,94.6,65.1,29.67,ESE,123,12.0,14.0,38,0.00,,SKC,0.00,1042.00,VWS V14.00,2013-08-24 18:39:00,
2013-08-24 13:40:00,94.4,64.9,29.67,ESE,123,8.0,14.0,38,0.00,,SKC,0.00,299.00,VWS V14.01,2013-08-24 18:40:00,
2013-08-24 13:44:00,94.1,65.4,29.67,ESE,123,8.0,11.0,39,0.00,,SKC,0.00,278.00,VWS V14.00,2013-08-24 18:44:00,
2013-08-24 13:49:00,94.2,65.5,29.67,SE,125,8.0,11.0,39,0.00,,SKC,0.00,1051.00,VWS V14.00,2013-08-24 18:49:00,
2013-08-24 13:50:00,94.3,66.3,29.67,SE,128,7.0,14.0,40,0.00,,SKC,0.00,1027.00,VWS V14.01,2013-08-24 18:50:00,
2013-08-24 13:54:00,94.5,66.5,29.66,SE,128,4.0,13.0,40,0.00,,SKC,0.00,1013.00,VWS V14.00,2013-08-24 18:54:00,
2013-08-24 13:59:00,95.0,66.2,29.66,SE,128,6.0,13.0,39,0.00,,SKC,0.00,1025.00,VWS V14.00,2013-08-24 18:59:00,
2013-08-24 14:00:00,95.2,65.6,29.66,SE,128,6.0,13.0,38,0.00,,SKC,0.00,1044.00,VWS V14.01,2013-08-24 19:00:00,
2013-08-24 14:04:00,95.5,65.9,29.66,SE,127,9.0,12.0,38,0.00,,SKC,0.00,1048.00,VWS V14.00,2013-08-24 19:04:00,
2013-08-24 14:09:00,95.9,66.2,29.66,SE,127,4.0,12.0,38,0.00,,SKC,0.00,241.00,VWS V14.00,2013-08-24 19:09:00,
2013-08-24 14:10:00,95.8,66.1,29.66,SE,127,7.0,12.0,38,0.00,,SKC,0.00,223.00,VWS V14.01,2013-08-24 19:10:00,
2013-08-24 14:14:00,95.2,66.4,29.66,SE,127,6.0,12.0,39,0.00,,SKC,0.00,232.00,VWS V14.00,2013-08-24 19:14:00,
2013-08-24 14:19:00,94.5,66.5,29.66,SE,126,5.0,13.0,40,0.00,,SKC,0.00,322.00,VWS V14.00,2013-08-24 19:19:00,
2013-08-24 14:20:00,94.2,66.2,29.66,SE,126,11.0,13.0,40,0.00,,SKC,0.00,322.00,VWS V14.01,2013-08-24 19:20:00,
2013-08-24 14:24:00,94.2,66.9,29.65,SE,127,4.0,12.0,41,0.00,,SKC,0.00,1053.00,VWS V14.00,2013-08-24 19:24:00,
2013-08-24 14:29:00,94.5,66.5,29.65,SE,128,2.0,12.0,40,0.00,,SKC,0.00,248.00,VWS V14.00,2013-08-24 19:29:00,
2013-08-24 14:30:00,94.6,66.6,29.65,SE,128,4.0,12.0,40,0.00,,SKC,0.00,237.00,VWS V14.01,2013-08-24 19:30:00,
2013-08-24 14:34:00,94.6,65.8,29.65,SE,128,0.0,7.0,39,0.00,,SKC,0.00,257.00,VWS V14.00,2013-08-24 19:34:00,
2013-08-24 14:39:00,95.2,66.4,29.65,SE,128,7.0,8.0,39,0.00,,SKC,0.00,1007.00,VWS V14.00,2013-08-24 19:39:00,
2013-08-24 14:40:00,95.5,66.6,29.65,ESE,123,11.0,15.0,39,0.00,,SKC,0.00,986.00,VWS V14.01,2013-08-24 19:40:00,
2013-08-24 14:44:00,95.4,66.5,29.65,SE,124,7.0,12.0,39,0.00,,SKC,0.00,993.00,VWS V14.00,2013-08-24 19:44:00,
2013-08-24 14:49:00,94.8,66.7,29.65,ESE,123,5.0,12.0,40,0.00,,SKC,0.00,250.00,VWS V14.00,2013-08-24 19:49:00,
2013-08-24 14:50:00,94.5,66.5,29.64,ESE,123,8.0,12.0,40,0.00,,SKC,0.00,264.00,VWS V14.01,2013-08-24 19:50:00,
2013-08-24 14:54:00,94.4,66.4,29.64,SE,124,8.0,13.0,40,0.00,,SKC,0.00,972.00,VWS V14.00,2013-08-24 19:54:00,
2013-08-24 14:59:00,94.9,66.8,29.64,SE,124,12.0,13.0,40,0.00,,SKC,0.00,911.00,VWS V14.00,2013-08-24 19:59:00,
2013-08-24 15:00:00,95.2,66.4,29.64,ESE,123,0.0,13.0,39,0.00,,SKC,0.00,904.00,VWS V14.01,2013-08-24 20:00:00,
2013-08-24 15:04:00,95.4,66.5,29.64,ESE,123,5.0,11.0,39,0.00,,SKC,0.00,900.00,VWS V14.00,2013-08-24 20:04:00,
2013-08-24 15:09:00,95.8,65.4,29.63,ESE,123,4.0,13.0,37,0.00,,SKC,0.00,896.00,VWS V14.00,2013-08-24 20:09:00,
2013-08-24 15:10:00,95.9,64.7,29.63,SE,124,5.0,13.0,36,0.00,,SKC,0.00,895.00,VWS V14.01,2013-08-24 20:10:00,
2013-08-24 15:14:00,96.3,65.0,29.63,SE,124,6.0,7.0,36,0.00,,SKC,0.00,911.00,VWS V14.00,2013-08-24 20:14:00,
2013-08-24 15:19:00,96.7,65.4,29.62,SE,124,11.0,12.0,36,0.00,,SKC,0.00,257.00,VWS V14.00,2013-08-24 20:19:00,
2013-08-24 15:20:00,96.5,65.2,29.62,SE,125,0.0,13.0,36,0.00,,SKC,0.00,271.00,VWS V14.01,2013-08-24 20:20:00,
2013-08-24 15:24:00,96.4,65.1,29.62,SE,125,5.0,7.0,36,0.00,,SKC,0.00,227.00,VWS V14.00,2013-08-24 20:24:00,
2013-08-24 15:29:00,96.0,65.6,29.61,SE,126,6.0,14.0,37,0.00,,SKC,0.00,536.00,VWS V14.00,2013-08-24 20:29:00,
2013-08-24 15:30:00,95.7,65.3,29.62,SE,126,6.0,14.0,37,0.00,,SKC,0.00,176.00,VWS V14.01,2013-08-24 20:30:00,
2013-08-24 15:34:00,95.4,65.0,29.62,SE,125,8.0,9.0,37,0.00,,SKC,0.00,162.00,VWS V14.00,2013-08-24 20:34:00,
2013-08-24 15:39:00,94.6,63.5,29.61,ESE,121,5.0,13.0,36,0.00,,SKC,0.00,230.00,VWS V14.00,2013-08-24 20:39:00,
2013-08-24 15:40:00,94.6,64.3,29.61,ESE,121,6.0,13.0,37,0.00,,SKC,0.00,904.00,VWS V14.01,2013-08-24 20:40:00,
2013-08-24 15:44:00,95.1,64.0,29.61,ESE,120,9.0,11.0,36,0.00,,SKC,0.00,879.00,VWS V14.00,2013-08-24 20:44:00,
2013-08-24 15:49:00,95.9,64.7,29.61,ESE,121,4.0,14.0,36,0.00,,SKC,0.00,176.00,VWS V14.00,2013-08-24 20:49:00,
2013-08-24 15:50:00,96.0,64.0,29.61,ESE,120,9.0,14.0,35,0.00,,SKC,0.00,807.00,VWS V14.01,2013-08-24 20:50:00,
2013-08-24 15:54:00,96.0,64.0,29.61,ESE,120,5.0,12.0,35,0.00,,SKC,0.00,169.00,VWS V14.00,2013-08-24 20:54:00,
2013-08-24 15:59:00,95.5,63.5,29.61,ESE,120,4.0,12.0,35,0.00,,SKC,0.00,185.00,VWS V14.00,2013-08-24 20:59:00,
2013-08-24 16:00:00,95.1,64.0,29.61,ESE,120,2.0,12.0,36,0.00,,SKC,0.00,817.00,VWS V14.01,2013-08-24 21:00:00,
2013-08-24 16:04:00,95.3,64.9,29.60,ESE,120,11.0,11.0,37,0.00,,SKC,0.00,823.00,VWS V14.00,2013-08-24 21:04:00,
2013-08-24 16:09:00,96.0,64.0,29.61,ESE,119,9.0,15.0,35,0.00,,SKC,0.00,821.00,VWS V14.00,2013-08-24 21:09:00,
2013-08-24 16:10:00,95.8,63.8,29.61,ESE,119,8.0,15.0,35,0.00,,SKC,0.00,192.00,VWS V14.01,2013-08-24 21:10:00,
2013-08-24 16:14:00,95.4,64.2,29.61,ESE,119,6.0,13.0,36,0.00,,SKC,0.00,188.00,VWS V14.00,2013-08-24 21:14:00,
2013-08-24 16:19:00,95.3,64.2,29.60,ESE,119,4.0,13.0,36,0.00,,SKC,0.00,795.00,VWS V14.00,2013-08-24 21:19:00,
2013-08-24 16:20:00,95.5,64.3,29.59,ESE,119,5.0,13.0,36,0.00,,SKC,0.00,773.00,VWS V14.01,2013-08-24 21:20:00,
2013-08-24 16:24:00,95.7,64.5,29.59,ESE,119,5.0,11.0,36,0.00,,SKC,0.00,754.00,VWS V14.00,2013-08-24 21:24:00,
2013-08-24 16:29:00,96.3,64.2,29.60,ESE,121,14.0,14.0,35,0.00,,SKC,0.00,786.00,VWS V14.00,2013-08-24 21:29:00,
2013-08-24 16:30:00,96.5,64.4,29.59,ESE,120,7.0,14.0,35,0.00,,SKC,0.00,257.00,VWS V14.01,2013-08-24 21:30:00,
2013-08-24 16:34:00,96.7,64.6,29.59,ESE,119,6.0,11.0,35,0.00,,SKC,0.00,775.00,VWS V14.00,2013-08-24 21:34:00,
2013-08-24 16:39:00,96.7,64.6,29.59,ESE,118,7.0,14.0,35,0.00,,SKC,0.00,749.00,VWS V14.00,2013-08-24 21:39:00,
2013-08-24 16:40:00,96.3,64.2,29.59,ESE,115,8.0,14.0,35,0.00,,SKC,0.00,206.00,VWS V14.01,2013-08-24 21:40:00,
2013-08-24 16:44:00,96.0,64.0,29.58,ESE,115,7.0,13.0,35,0.00,,SKC,0.00,214.00,VWS V14.00,2013-08-24 21:44:00,
2013-08-24 16:49:00,95.8,64.6,29.58,ESE,117,7.0,14.0,36,0.00,,SKC,0.00,141.00,VWS V14.00,2013-08-24 21:49:00,
2013-08-24 16:50:00,95.5,64.3,29.59,ESE,116,6.0,14.0,36,0.00,,SKC,0.00,128.00,VWS V14.01,2013-08-24 21:50:00,
2013-08-24 16:54:00,95.3,64.2,29.59,ESE,115,6.0,15.0,36,0.00,,SKC,0.00,137.00,VWS V14.00,2013-08-24 21:54:00,
2013-08-24 16:59:00,94.5,65.0,29.59,ESE,117,5.0,15.0,38,0.00,,SKC,0.00,200.00,VWS V14.00,2013-08-24 21:59:00,
2013-08-24 17:00:00,94.2,64.7,29.59,ESE,121,6.0,18.0,38,0.00,,SKC,0.00,123.00,VWS V14.01,2013-08-24 22:00:00,
2013-08-24 17:04:00,94.1,64.6,29.59,ESE,121,6.0,11.0,38,0.00,,SKC,0.00,155.00,VWS V14.00,2013-08-24 22:04:00,
2013-08-24 17:08:00,93.8,65.1,29.58,ESE,120,7.0,13.0,39,0.00,,SKC,0.00,313.00,VWS V14.00,2013-08-24 22:08:00,
2013-08-24 17:10:00,93.9,65.2,29.58,SE,124,7.0,16.0,39,0.00,,SKC,0.00,584.00,VWS V14.01,2013-08-24 22:10:00,
2013-08-24 17:13:00,94.0,64.6,29.58,ESE,121,8.0,12.0,38,0.00,,SKC,0.00,577.00,VWS V14.00,2013-08-24 22:13:00,
2013-08-24 17:18:00,94.6,64.3,29.57,SE,126,8.0,15.0,37,0.00,,SKC,0.00,559.00,VWS V14.00,2013-08-24 22:18:00,
2013-08-24 17:20:00,95.0,64.7,29.58,SE,128,11.0,18.0,37,0.00,,SKC,0.00,559.00,VWS V14.01,2013-08-24 22:20:00,
2013-08-24 17:23:00,95.1,64.8,29.57,ESE,123,12.0,13.0,37,0.00,,SKC,0.00,578.00,VWS V14.00,2013-08-24 22:23:00,
2013-08-24 17:28:00,95.5,65.1,29.57,ESE,123,13.0,18.0,37,0.00,,SKC,0.00,536.00,VWS V14.00,2013-08-24 22:28:00,
2013-08-24 17:30:00,95.5,65.1,29.58,ESE,119,7.0,18.0,37,0.00,,SKC,0.00,116.00,VWS V14.01,2013-08-24 22:30:00,
2013-08-24 17:33:00,95.3,64.9,29.58,ESE,117,7.0,13.0,37,0.00,,SKC,0.00,97.00,VWS V14.00,2013-08-24 22:33:00,
2013-08-24 17:38:00,94.6,65.1,29.58,ESE,117,2.0,13.0,38,0.00,,SKC,0.00,475.00,VWS V14.00,2013-08-24 22:38:00,
2013-08-24 17:40:00,94.4,64.9,29.58,ESE,115,7.0,13.0,38,0.00,,SKC,0.00,464.00,VWS V14.01,2013-08-24 22:40:00,
2013-08-24 17:43:00,94.5,65.0,29.58,ESE,115,4.0,7.0,38,0.00,,SKC,0.00,452.00,VWS V14.00,2013-08-24 22:43:00,
2013-08-24 17:48:00,94.9,64.6,29.58,SE,129,12.0,21.0,37,0.00,,SKC,0.00,439.00,VWS V14.00,2013-08-24 22:48:00,
2013-08-24 17:50:00,94.9,64.6,29.58,SE,128,6.0,21.0,37,0.00,,SKC,0.00,436.00,VWS V14.01,2013-08-24 22:50:00,
2013-08-24 17:53:00,94.9,63.8,29.58,SE,127,8.0,14.0,36,0.00,,SKC,0.00,429.00,VWS V14.00,2013-08-24 22:53:00,
2013-08-24 17:58:00,95.0,63.9,29.58,SE,127,5.0,14.0,36,0.00,,SKC,0.00,404.00,VWS V14.00,2013-08-24 22:58:00,
2013-08-24 18:00:00,95.1,64.0,29.58,SE,127,2.0,14.0,36,0.00,,SKC,0.00,390.00,VWS V14.01,2013-08-24 23:00:00,
2013-08-24 18:03:00,95.1,64.0,29.58,SE,127,5.0,9.0,36,0.00,,SKC,0.00,383.00,VWS V14.00,2013-08-24 23:03:00,
2013-08-24 18:08:00,95.2,64.1,29.58,SE,126,9.0,12.0,36,0.00,,SKC,0.00,378.00,VWS V14.00,2013-08-24 23:08:00,
2013-08-24 18:10:00,95.2,63.3,29.58,SE,126,6.0,12.0,35,0.00,,SKC,0.00,373.00,VWS V14.01,2013-08-24 23:10:00,
2013-08-24 18:13:00,95.3,63.3,29.58,SE,126,5.0,9.0,35,0.00,,SKC,0.00,364.00,VWS V14.00,2013-08-24 23:13:00,
2013-08-24 18:18:00,95.3,62.5,29.58,SE,126,5.0,15.0,34,0.00,,SKC,0.00,339.00,VWS V14.00,2013-08-24 23:18:00,
2013-08-24 18:20:00,95.3,62.5,29.58,SE,125,6.0,15.0,34,0.00,,SKC,0.00,156.00,VWS V14.01,2013-08-24 23:20:00,
2013-08-24 18:23:00,95.2,62.4,29.58,SE,125,5.0,8.0,34,0.00,,SKC,0.00,206.00,VWS V14.00,2013-08-24 23:23:00,
2013-08-24 18:28:00,95.1,63.2,29.58,SE,126,13.0,14.0,35,0.00,,SKC,0.00,295.00,VWS V14.00,2013-08-24 23:28:00,
2013-08-24 18:30:00,95.0,63.1,29.58,SE,126,9.0,14.0,35,0.00,,SKC,0.00,183.00,VWS V14.01,2013-08-24 23:30:00,
2013-08-24 18:33:00,94.8,62.9,29.58,SE,126,6.0,8.0,35,0.00,,SKC,0.00,91.00,VWS V14.00,2013-08-24 23:33:00,
2013-08-24 18:38:00,94.4,63.4,29.58,SE,126,7.0,12.0,36,0.00,,SKC,0.00,54.00,VWS V14.00,2013-08-24 23:38:00,
2013-08-24 18:40:00,94.0,63.0,29.59,SE,126,6.0,12.0,36,0.00,,SKC,0.00,46.00,VWS V14.01,2013-08-24 23:40:00,
2013-08-24 18:43:00,93.7,62.7,29.59,SE,126,2.0,7.0,36,0.00,,SKC,0.00,40.00,VWS V14.00,2013-08-24 23:43:00,
2013-08-24 18:48:00,93.3,62.4,29.59,SE,126,1.0,7.0,36,0.00,,SKC,0.00,35.00,VWS V14.00,2013-08-24 23:48:00,
2013-08-24 18:50:00,93.1,62.2,29.58,SE,126,6.0,9.0,36,0.00,,SKC,0.00,33.00,VWS V14.01,2013-08-24 23:50:00,
2013-08-24 18:53:00,92.9,62.0,29.58,SE,126,6.0,7.0,36,0.00,,SKC,0.00,33.00,VWS V14.00,2013-08-24 23:53:00,
2013-08-24 18:58:00,92.5,62.5,29.58,SE,126,4.0,8.0,37,0.00,,SKC,0.00,30.00,VWS V14.00,2013-08-24 23:58:00,
2013-08-24 19:00:00,92.3,63.0,29.59,SE,126,4.0,8.0,38,0.00,,SKC,0.00,30.00,VWS V14.01,2013-08-25 00:00:00,
2013-08-24 19:03:00,92.2,63.0,29.59,SE,126,5.0,7.0,38,0.00,,SKC,0.00,28.00,VWS V14.00,2013-08-25 00:03:00,
2013-08-24 19:08:00,91.8,63.3,29.59,SE,126,4.0,12.0,39,0.00,,SKC,0.00,26.00,VWS V14.00,2013-08-25 00:08:00,
2013-08-24 19:10:00,91.6,63.2,29.59,SE,126,4.0,12.0,39,0.00,,SKC,0.00,26.00,VWS V14.01,2013-08-25 00:10:00,
2013-08-24 19:13:00,91.6,63.2,29.59,SE,126,2.0,7.0,39,0.00,,SKC,0.00,25.00,VWS V14.00,2013-08-25 00:13:00,
2013-08-24 19:18:00,91.4,64.4,29.59,SE,126,1.0,7.0,41,0.00,,SKC,0.00,23.00,VWS V14.00,2013-08-25 00:18:00,
2013-08-24 19:20:00,91.3,64.3,29.58,SE,126,6.0,7.0,41,0.00,,SKC,0.00,21.00,VWS V14.01,2013-08-25 00:20:00,
2013-08-24 19:23:00,91.2,64.2,29.58,SE,126,1.0,7.0,41,0.00,,SKC,0.00,21.00,VWS V14.00,2013-08-25 00:23:00,
2013-08-24 19:28:00,91.0,64.7,29.58,SE,126,4.0,7.0,42,0.00,,SKC,0.00,19.00,VWS V14.00,2013-08-25 00:28:00,
2013-08-24 19:30:00,90.9,64.7,29.59,SE,126,4.0,7.0,42,0.00,,SKC,0.00,28.00,VWS V14.01,2013-08-25 00:30:00,
2013-08-24 19:33:00,90.8,64.6,29.59,SE,126,1.0,7.0,42,0.00,,SKC,0.00,30.00,VWS V14.00,2013-08-25 00:33:00,
2013-08-24 19:38:00,90.7,64.5,29.59,SE,126,7.0,8.0,42,0.00,,SKC,0.00,16.00,VWS V14.00,2013-08-25 00:38:00,
2013-08-24 19:40:00,90.4,64.9,29.59,SE,126,7.0,8.0,43,0.00,,SKC,0.00,14.00,VWS V14.01,2013-08-25 00:40:00,
2013-08-24 19:43:00,90.3,64.8,29.59,SE,126,7.0,7.0,43,0.00,,SKC,0.00,14.00,VWS V14.00,2013-08-25 00:43:00,
2013-08-24 19:48:00,89.7,64.9,29.59,SE,126,2.0,7.0,44,0.00,,SKC,0.00,11.00,VWS V14.00,2013-08-25 00:48:00,
2013-08-24 19:50:00,89.4,64.6,29.59,SE,126,2.0,7.0,44,0.00,,SKC,0.00,9.00,VWS V14.01,2013-08-25 00:50:00,
2013-08-24 19:53:00,89.3,64.6,29.59,SE,126,2.0,4.0,44,0.00,,SKC,0.00,9.00,VWS V14.00,2013-08-25 00:53:00,
2013-08-24 19:58:00,89.0,64.9,29.59,SE,126,2.0,5.0,45,0.00,,SKC,0.00,5.00,VWS V14.00,2013-08-25 00:58:00,
2013-08-24 20:00:00,88.7,64.7,29.59,SE,126,1.0,5.0,45,0.00,,SKC,0.00,0.00,VWS V14.01,2013-08-25 01:00:00,
2013-08-24 20:03:00,88.6,64.6,29.59,SE,126,0.0,4.0,45,0.00,,SKC,0.00,0.00,VWS V14.00,2013-08-25 01:03:00,
2013-08-24 20:08:00,88.3,64.3,29.59,SE,126,2.0,5.0,45,0.00,,SKC,0.00,0.00,VWS V14.00,2013-08-25 01:08:00,
2013-08-24 20:10:00,88.2,64.8,29.59,SE,126,1.0,5.0,46,0.00,,SKC,0.00,0.00,VWS V14.01,2013-08-25 01:10:00,
2013-08-24 20:13:00,88.1,64.7,29.59,SE,126,0.0,2.0,46,0.00,,SKC,0.00,0.00,VWS V14.00,2013-08-25 01:13:00,
2013-08-24 20:18:00,87.9,64.6,29.59,SE,126,4.0,7.0,46,0.00,,SKC,0.00,0.00,VWS V14.00,2013-08-25 01:18:00,
2013-08-24 20:20:00,87.7,64.4,29.60,SE,126,0.0,7.0,46,0.00,,SKC,0.00,0.00,VWS V14.01,2013-08-25 01:20:00,
2013-08-24 20:23:00,87.7,65.0,29.60,SE,126,1.0,6.0,47,0.00,,SKC,0.00,0.00,VWS V14.00,2013-08-25 01:23:00,
2013-08-24 20:28:00,87.7,65.0,29.60,SE,126,1.0,6.0,47,0.00,,SKC,0.00,0.00,VWS V14.00,2013-08-25 01:28:00,
2013-08-24 20:30:00,87.6,64.9,29.60,SE,126,2.0,7.0,47,0.00,,SKC,0.00,0.00,VWS V14.01,2013-08-25 01:30:00,
2013-08-24 20:33:00,87.7,65.0,29.60,SE,126,2.0,7.0,47,0.00,,SKC,0.00,0.00,VWS V14.00,2013-08-25 01:33:00,
2013-08-24 20:38:00,87.7,65.0,29.61,SE,126,5.0,8.0,47,0.00,,SKC,0.00,0.00,VWS V14.00,2013-08-25 01:38:00,
2013-08-24 20:40:00,87.7,65.0,29.61,SE,126,5.0,8.0,47,0.00,,SKC,0.00,0.00,VWS V14.01,2013-08-25 01:40:00,
2013-08-24 20:43:00,87.7,65.0,29.61,SE,126,1.0,6.0,47,0.00,,SKC,0.00,0.00,VWS V14.00,2013-08-25 01:43:00,
2013-08-24 20:48:00,87.6,64.9,29.60,SE,126,2.0,6.0,47,0.00,,SKC,0.00,0.00,VWS V14.00,2013-08-25 01:48:00,
2013-08-24 20:50:00,87.6,64.9,29.61,SE,126,4.0,7.0,47,0.00,,SKC,0.00,0.00,VWS V14.01,2013-08-25 01:50:00,
2013-08-24 20:53:00,87.5,64.8,29.61,SE,126,4.0,6.0,47,0.00,,SKC,0.00,0.00,VWS V14.00,2013-08-25 01:53:00,
2013-08-24 20:58:00,87.4,65.3,29.61,SE,126,6.0,7.0,48,0.00,,SKC,0.00,0.00,VWS V14.00,2013-08-25 01:58:00,
2013-08-24 21:00:00,87.4,65.3,29.61,SE,126,6.0,8.0,48,0.00,,SKC,0.00,0.00,VWS V14.01,2013-08-25 02:00:00,
2013-08-24 21:03:00,87.3,65.2,29.61,SE,126,2.0,6.0,48,0.00,,SKC,0.00,0.00,VWS V14.00,2013-08-25 02:03:00,
2013-08-24 21:08:00,87.3,65.2,29.61,SE,126,4.0,6.0,48,0.00,,SKC,0.00,0.00,VWS V14.00,2013-08-25 02:08:00,
2013-08-24 21:10:00,87.2,65.1,29.61,SE,126,0.0,6.0,48,0.00,,SKC,0.00,0.00,VWS V14.01,2013-08-25 02:10:00,
2013-08-24 21:13:00,87.2,65.1,29.62,SE,126,2.0,4.0,48,0.00,,SKC,0.00,0.00,VWS V14.00,2013-08-25 02:13:00,
2013-08-24 21:18:00,87.0,65.0,29.62,SE,126,1.0,7.0,48,0.00,,SKC,0.00,0.00,VWS V14.00,2013-08-25 02:18:00,
2013-08-24 21:20:00,86.8,64.8,29.62,SE,126,1.0,7.0,48,0.00,,SKC,0.00,0.00,VWS V14.01,2013-08-25 02:20:00,
2013-08-24 21:23:00,86.8,64.8,29.62,SE,126,0.0,2.0,48,0.00,,SKC,0.00,0.00,VWS V14.00,2013-08-25 02:23:00,
2013-08-24 21:28:00,86.6,64.6,29.62,SE,126,1.0,6.0,48,0.00,,SKC,0.00,0.00,VWS V14.00,2013-08-25 02:28:00,
2013-08-24 21:30:00,86.5,64.5,29.62,SE,126,0.0,6.0,48,0.00,,SKC,0.00,0.00,VWS V14.01,2013-08-25 02:30:00,
2013-08-24 21:33:00,86.4,64.4,29.62,SE,126,0.0,2.0,48,0.00,,SKC,0.00,0.00,VWS V14.00,2013-08-25 02:33:00,
2013-08-24 21:38:00,86.3,64.3,29.63,SE,126,5.0,6.0,48,0.00,,SKC,0.00,0.00,VWS V14.00,2013-08-25 02:38:00,
2013-08-24 21:40:00,86.2,63.6,29.63,SE,126,6.0,8.0,47,0.00,,SKC,0.00,0.00,VWS V14.01,2013-08-25 02:40:00,
2013-08-24 21:43:00,86.2,63.6,29.63,SE,126,5.0,7.0,47,0.00,,SKC,0.00,0.00,VWS V14.00,2013-08-25 02:43:00,
2013-08-24 21:48:00,86.2,63.6,29.64,SE,126,0.0,7.0,47,0.00,,SKC,0.00,0.00,VWS V14.00,2013-08-25 02:48:00,
2013-08-24 21:50:00,86.1,63.5,29.64,SE,126,2.0,8.0,47,0.00,,SKC,0.00,0.00,VWS V14.01,2013-08-25 02:50:00,
2013-08-24 21:53:00,86.1,63.5,29.64,SE,126,4.0,7.0,47,0.00,,SKC,0.00,0.00,VWS V14.00,2013-08-25 02:53:00,
2013-08-24 21:58:00,86.0,63.4,29.65,SE,126,1.0,7.0,47,0.00,,SKC,0.00,0.00,VWS V14.00,2013-08-25 02:58:00,
2013-08-24 22:00:00,85.9,64.0,29.65,SE,126,0.0,7.0,48,0.00,,SKC,0.00,0.00,VWS V14.01,2013-08-25 03:00:00,
2013-08-24 22:03:00,85.9,64.0,29.65,SE,126,4.0,8.0,48,0.00,,SKC,0.00,0.00,VWS V14.00,2013-08-25 03:03:00,
2013-08-24 22:08:00,85.7,63.8,29.65,SE,126,4.0,8.0,48,0.00,,SKC,0.00,0.00,VWS V14.00,2013-08-25 03:08:00,
2013-08-24 22:10:00,85.6,63.7,29.65,SE,126,7.0,8.0,48,0.00,,SKC,0.00,0.00,VWS V14.01,2013-08-25 03:10:00,
2013-08-24 22:13:00,85.6,63.7,29.65,SE,126,6.0,6.0,48,0.00,,SKC,0.00,0.00,VWS V14.00,2013-08-25 03:13:00,
2013-08-24 22:18:00,85.4,63.5,29.65,SE,126,6.0,6.0,48,0.00,,SKC,0.00,0.00,VWS V14.00,2013-08-25 03:18:00,
2013-08-24 22:20:00,85.4,63.5,29.66,SE,126,5.0,8.0,48,0.00,,SKC,0.00,0.00,VWS V14.01,2013-08-25 03:20:00,
2013-08-24 22:23:00,85.3,64.0,29.66,SE,126,5.0,7.0,49,0.00,,SKC,0.00,0.00,VWS V14.00,2013-08-25 03:23:00,
2013-08-24 22:28:00,85.3,64.6,29.67,SE,126,6.0,12.0,50,0.00,,SKC,0.00,0.00,VWS V14.00,2013-08-25 03:28:00,
2013-08-24 22:30:00,85.4,64.7,29.67,SE,126,4.0,13.0,50,0.00,,SKC,0.00,0.00,VWS V14.01,2013-08-25 03:30:00,
2013-08-24 22:33:00,85.4,64.7,29.67,SE,126,7.0,8.0,50,0.00,,SKC,0.00,0.00,VWS V14.00,2013-08-25 03:33:00,
2013-08-24 22:38:00,85.4,64.7,29.67,SE,126,7.0,11.0,50,0.00,,SKC,0.00,0.00,VWS V14.00,2013-08-25 03:38:00,
2013-08-24 22:40:00,85.3,64.6,29.67,SE,126,7.0,11.0,50,0.00,,SKC,0.00,0.00,VWS V14.01,2013-08-25 03:40:00,
2013-08-24 22:43:00,85.3,64.6,29.67,SE,126,8.0,9.0,50,0.00,,SKC,0.00,0.00,VWS V14.00,2013-08-25 03:43:00,
2013-08-24 22:48:00,85.2,64.5,29.67,SE,126,6.0,12.0,50,0.00,,SKC,0.00,0.00,VWS V14.00,2013-08-25 03:48:00,
2013-08-24 22:50:00,85.1,64.4,29.67,SE,126,2.0,12.0,50,0.00,,SKC,0.00,0.00,VWS V14.01,2013-08-25 03:50:00,
2013-08-24 22:53:00,85.1,64.4,29.67,SE,126,4.0,7.0,50,0.00,,SKC,0.00,0.00,VWS V14.00,2013-08-25 03:53:00,
2013-08-24 22:58:00,84.9,64.8,29.67,SE,126,6.0,8.0,51,0.00,,SKC,0.00,0.00,VWS V14.00,2013-08-25 03:58:00,
2013-08-24 23:00:00,84.8,64.7,29.67,SE,126,4.0,8.0,51,0.00,,SKC,0.00,0.00,VWS V14.01,2013-08-25 04:00:00,
2013-08-24 23:01:00,84.8,64.7,29.67,SE,126,5.0,8.0,51,0.00,,SKC,0.00,0.00,VWS V14.00,2013-08-25 04:01:00,
2013-08-24 23:02:00,84.7,64.6,29.67,SE,126,1.0,4.0,51,0.00,,SKC,0.00,0.00,VWS V14.00,2013-08-25 04:02:00,
2013-08-24 23:07:00,84.6,64.5,29.68,SE,126,5.0,7.0,51,0.00,,SKC,0.00,0.00,VWS V14.00,2013-08-25 04:07:00,
2013-08-24 23:10:00,84.3,64.8,29.68,SE,126,6.0,8.0,52,0.00,,SKC,0.00,0.00,VWS V14.01,2013-08-25 04:10:00,
2013-08-24 23:12:00,84.3,64.8,29.68,SE,126,9.0,9.0,52,0.00,,SKC,0.00,0.00,VWS V14.00,2013-08-25 04:12:00,
2013-08-24 23:17:00,84.1,65.1,29.68,SE,126,5.0,9.0,53,0.00,,SKC,0.00,0.00,VWS V14.00,2013-08-25 04:17:00,
2013-08-24 23:20:00,83.9,64.9,29.68,SE,126,4.0,9.0,53,0.00,,SKC,0.00,0.00,VWS V14.01,2013-08-25 04:20:00,
2013-08-24 23:22:00,83.9,64.9,29.68,SE,126,4.0,5.0,53,0.00,,SKC,0.00,0.00,VWS V14.00,2013-08-25 04:22:00,
2013-08-24 23:27:00,83.7,65.3,29.68,SE,126,4.0,7.0,54,0.00,,SKC,0.00,0.00,VWS V14.00,2013-08-25 04:27:00,
2013-08-24 23:30:00,83.5,65.7,29.68,SE,126,6.0,7.0,55,0.00,,SKC,0.00,0.00,VWS V14.01,2013-08-25 04:30:00,
2013-08-24 23:32:00,83.5,65.7,29.68,SE,126,4.0,5.0,55,0.00,,SKC,0.00,0.00,VWS V14.00,2013-08-25 04:32:00,
2013-08-24 23:37:00,83.3,66.0,29.68,SE,126,2.0,6.0,56,0.00,,SKC,0.00,0.00,VWS V14.00,2013-08-25 04:37:00,
2013-08-24 23:40:00,83.1,65.8,29.68,SE,126,4.0,8.0,56,0.00,,SKC,0.00,0.00,VWS V14.01,2013-08-25 04:40:00,
2013-08-24 23:42:00,83.1,65.8,29.69,SE,126,2.0,4.0,56,0.00,,SKC,0.00,0.00,VWS V14.00,2013-08-25 04:42:00,
2013-08-24 23:47:00,82.9,66.1,29.68,SE,126,4.0,6.0,57,0.00,,SKC,0.00,0.00,VWS V14.00,2013-08-25 04:47:00,
2013-08-24 23:50:00,82.8,66.5,29.69,SE,126,4.0,6.0,58,0.00,,SKC,0.00,0.00,VWS V14.01,2013-08-25 04:50:00,
2013-08-24 23:52:00,82.7,66.4,29.68,SE,126,0.0,4.0,58,0.00,,SKC,0.00,0.00,VWS V14.00,2013-08-25 04:52:00,
2013-08-24 23:57:00,82.5,66.7,29.68,SE,126,0.0,8.0,59,0.00,,SKC,0.00,0.00,VWS V14.00,2013-08-25 04:57:00,